ONEWEB-0109 (47259 NORAD) Tracking and Keplerian Element Data

This shows tracking and keplerian element data for the satellite.

Feedback or suggestion? Click here.




ElementValue
Catalog47259
NameONEWEB-0109
Epoch Orbit512
Epoch Day21.16668981
Epoch Year2021
RAAN27.9565
Inclination87.3422
Eccentricity0.0009436
Argument of Perigee145.2707
Mean Anonmoly252.673
Mean Motion14.8971051
Decay Rate-0.01506143
L11 47259U 20100B 21021.16668981 -.01506143 00000-0 -17072+0 0 9999
L22 47259 87.3422 27.9565 0009436 145.2707 252.6730 14.89710510 5126

Live tracking and technical data element details for ONEWEB-0109 (NORAD 47259). ONEWEB-0109 can be tracked NOW for your location showing map with azimuth and elevation plus other details from your city location.

Track the satellite on the map from your city or location and see movement details for azimuth, elevation, latitude, longitude, range, height, and movement on the map or in text.







IsCatalogInMostPopularTable: catalog: 47259, numindb: 12
Update: records affected: 1



GetName: 47259 ONEWEB-0109

Hit Count: updated at: Sat, 23 Jan 2021 17:27:38 GMT